This is the latest recevied weather packets stored in our database for station/object K1RFS. If no packets are shown the sender has not sent any weather packets the latest 10 day(s).
| Time | Temp. | Humidity | Pressure | Rain* | Wind** | Luminosity | Snow |
|---|---|---|---|---|---|---|---|
| 1777766616 | 22.78° C | 16% | 1001.7 hPa | 0 mm | - | 133 W/m² | - |
| 1777766312 | 22.78° C | 16% | 1002 hPa | 0 mm | - | 197 W/m² | - |
| 1777766010 | 23.33° C | 16% | 1001.7 hPa | 0 mm | - | 254 W/m² | - |
| 1777765706 | 22.78° C | 16% | 1001.7 hPa | 0 mm | - | 293 W/m² | - |
| 1777765403 | 24.44° C | 16% | 1001.7 hPa | 0 mm | - | 302 W/m² | - |
| 1777765100 | 25.56° C | 13% | 1001.8 hPa | 0 mm | - | 323 W/m² | - |
| 1777764796 | 25° C | 14% | 1001.7 hPa | 0 mm | - | 329 W/m² | - |
| 1777764493 | 25.56° C | 14% | 1002 hPa | 0 mm | - | 353 W/m² | - |
| 1777764189 | 25.56° C | 14% | 1002 hPa | 0 mm | - | 365 W/m² | - |
| 1777763886 | 25.56° C | 15% | 1002 hPa | 0 mm | - | 381 W/m² | - |
| 1777763584 | 25° C | 15% | 1001.7 hPa | 0 mm | - | 283 W/m² | - |
| 1777763282 | 24.44° C | 15% | 1002 hPa | 0 mm | - | 342 W/m² | - |
| 1777762980 | 25° C | 14% | 1002.2 hPa | 0 mm | - | 299 W/m² | - |
| 1777762676 | 25° C | 14% | 1002 hPa | 0 mm | - | 338 W/m² | - |
| 1777762373 | 25° C | 14% | 1002 hPa | 0 mm | - | 408 W/m² | - |
| 1777762069 | 26.11° C | 14% | 1002.3 hPa | 0 mm | - | 418 W/m² | - |
| 1777761766 | 25° C | 14% | 1002.3 hPa | 0 mm | - | 457 W/m² | - |
| 1777761463 | 24.44° C | 14% | 1002.4 hPa | 0 mm | - | 446 W/m² | - |
| 1777761161 | 24.44° C | 15% | 1002.4 hPa | 0 mm | - | 395 W/m² | - |
| 1777760859 | 25° C | 14% | 1002.5 hPa | 0 mm | - | 438 W/m² | - |
| 1777760556 | 25° C | 14% | 1002.8 hPa | 0 mm | - | 440 W/m² | - |
| 1777760251 | 24.44° C | 14% | 1002.6 hPa | 0 mm | - | 444 W/m² | - |
| 1777759949 | 25° C | 13% | 1002.8 hPa | 0 mm | - | 414 W/m² | - |
| 1777759645 | 25° C | 13% | 1002.9 hPa | 0 mm | - | 416 W/m² | - |
| 1777759341 | 25° C | 13% | 1002.8 hPa | 0 mm | - | 436 W/m² | - |
* Rain latest hour (hover to see other rain measurements)
** Current wind speed in m/s (hover to see current wind gust speed)